STARLINK-1120 (45045 NORAD) Tracking and Keplerian Element Data

This shows tracking and keplerian element data for the satellite.

Feedback or suggestion? Click here.




ElementValue
Catalog45045
NameSTARLINK-1120
Epoch Orbit161
Epoch Day93.91667824
Epoch Year2020
RAAN293.3857
Inclination53.0014
Eccentricity0.0001459
Argument of Perigee78.16
Mean Anonmoly302.8767
Mean Motion15.03957113
Decay Rate0.00013124
L11 45045U 20006B 20093.91667824 .00013124 00000-0 95870-3 0 9996
L22 45045 53.0014 293.3857 0001459 78.1600 302.8767 15.03957113 1617

Live tracking and technical data element details for STARLINK-1120 (NORAD 45045). STARLINK-1120 can be tracked NOW for your location showing map with azimuth and elevation plus other details from your city location.

Track the satellite on the map from your city or location and see movement details for azimuth, elevation, latitude, longitude, range, height, and movement on the map or in text.







IsCatalogInMostPopularTable: catalog: 45045, numindb: 12
Update: records affected: 1



GetName: 45045 STARLINK-1120

Hit Count: updated at: Fri, 03 Apr 2020 23:41:50 GMT